Flag for Ukraine Weather past 2 weeks in Odesa, Ukraine

Now
64 °F

Clear.


Feels Like: 64 °F
Forecast: 67 / 87 °F
Wind: 3 mph from Southeast

Location: Odesa Airport

Current Time: Sep 5, 2015 at 5:15:52 AM

Latest Report: Sep 5, 2015 at 4:30 AM


Visibility: 10 mi

Pressure: 29.89 "Hg

Humidity: 83%

Dew point: 59 °F

Location of OdesaLocation

Historic Weather in Odesa — Graph

°F

Odesa temperature yesterday

Maximum temperature yesterday: 91 °F (at 3:30 PM)
Minimum temperature yesterday: 61 °F (at 6:30 AM)
Average temperature yesterday: 77 °F

Past Weeks' High & Low Weather Summary

 TemperatureHumidityPressure
High91 °F (Sep 1, 12:00 PM)100% (Aug 26, 3:30 AM)30.24 "Hg (Aug 26, 3:30 AM)
Low57 °F (Aug 22, 6:00 AM)20% (Aug 24, 3:00 PM)29.86 "Hg (Sep 2, 4:00 PM)
Average74 °F57%30.03 "Hg
* Reported Aug 21 4:00 AM — Sep 5 4:00 AM, Odesa, Weather by CustomWeather, © 2015

Note: Actual official high and low records may vary slightly from our data, if they occured in-between our weather recording intervals... More about our weather records

Advertising

Odesa weather history for previous 24 hours

 ConditionsComfort  
Time TempWeatherWind HumidityBarometerVisibility
4:00 AM
Sat, Sep 5
66 °FClear.No wind83%29.89 "Hg10 mi
3:30 AM66 °FClear.3 mph83%29.89 "Hg10 mi
3:00 AM66 °FClear.No wind88%29.89 "Hg10 mi
2:30 AM66 °FClear.No wind88%29.89 "Hg10 mi
2:00 AM70 °FClear.3 mph78%29.89 "Hg10 mi
1:30 AM68 °FClear.No wind78%29.89 "Hg10 mi
1:00 AM70 °FClear.1 mph73%29.89 "Hg10 mi
12:30 AM70 °FClear.No wind78%29.89 "Hg10 mi
12:00 AM72 °FClear.No wind69%29.89 "Hg10 mi
11:30 PM
Fri, Sep 4
72 °FClear.3 mph65%29.89 "Hg10 mi
11:00 PM73 °FPassing clouds.3 mph61%29.89 "HgN/A
10:30 PM73 °FClear.No wind65%29.89 "Hg10 mi
10:00 PM75 °FPassing clouds.3 mph61%29.89 "HgN/A
9:30 PM75 °FClear.6 mph65%29.89 "Hg10 mi
9:00 PM77 °FClear.3 mph57%29.89 "Hg10 mi
8:30 PM79 °FSunny.6 mph54%29.89 "Hg10 mi
8:00 PM81 °FSunny.3 mph48%29.89 "Hg10 mi
7:30 PM82 °FSunny.8 mph42%29.89 "Hg10 mi
7:00 PM86 °FSunny.8 mph31%29.86 "Hg10 mi
6:30 PM88 °FSunny.13 mph31%29.86 "Hg10 mi
6:00 PM86 °FSunny.10 mph43%29.86 "Hg10 mi
5:30 PM86 °FSunny.13 mph43%29.86 "Hg10 mi
5:00 PM88 °FSunny.13 mph43%29.86 "Hg10 mi
4:30 PM88 °FPartly sunny.13 mph40%29.89 "HgN/A
4:00 PM90 °FPartly sunny.13 mph38%29.89 "HgN/A
3:30 PM91 °FPartly sunny.10 mph36%29.89 "HgN/A
3:00 PM90 °FPartly sunny.8 mph41%29.89 "HgN/A
2:30 PM90 °FPassing clouds.8 mph38%29.89 "HgN/A
2:00 PM88 °FScattered clouds.8 mph46%29.89 "HgN/A
1:30 PM88 °FPassing clouds.8 mph49%29.89 "HgN/A
1:00 PM88 °FPassing clouds.8 mph43%29.89 "HgN/A
12:30 PM86 °FPassing clouds.10 mph46%29.89 "HgN/A
12:00 PM86 °FPassing clouds.3 mph49%29.89 "HgN/A
11:38 AM88 °FSunny.3 mph35%29.89 "Hg10 mi
11:00 AM88 °FPassing clouds.3 mph35%29.89 "HgN/A
10:30 AM84 °FSunny.No wind43%29.89 "Hg10 mi
10:00 AM82 °FSunny.No wind48%29.89 "Hg10 mi
9:30 AM79 °FSunny.No wind58%29.89 "Hg10 mi
9:00 AM75 °FSunny.1 mph65%29.89 "Hg10 mi
8:30 AM73 °FSunny.No wind65%29.89 "Hg10 mi
8:00 AM70 °FSunny.No wind78%29.89 "Hg10 mi
7:30 AM66 °FSunny.No wind94%29.89 "Hg10 mi
7:00 AM63 °FFog.No wind88%29.89 "HgN/A
6:30 AM61 °FFog.No wind94%29.89 "Hg4 mi
6:00 AM63 °FFog.No wind100%29.89 "Hg1 mi
5:30 AM63 °FFog.No wind100%29.89 "Hg4 mi
5:00 AM63 °FClear.No wind100%29.86 "Hg4 mi
Weather by CustomWeather, © 2015

See weather overviewHow to use our weather pages